[[{"header":{"parameterUnit":"m.s-1","parameterCategory":1,"la1":30.2991,"la2":30.254,"lo1":-89.0895,"lo2":-89.0444,"dy":0.0017,"dx":0.0017,"nx":28,"ny":28,"refTime":"2025-04-01T03:00:00:Z","depth":0,"parameterNumber":2,"parameterNumberName":"U-component_of_WINDS"},"data":[0,0,0,0,0,0,0,0,0,0,0,0,0,0,0,0,0,0,0,0,0,0,0,0,0,0,0,0,0,0,0,0,0,0,0,0,0,0,0,0,0,0,0,0,0,0,0,0,0,0,0,0,0,0,0,0,0,0,-4.397,-4.3972,0,-4.409,-4.4091,-4.4093,-4.4115,-4.4114,-4.4113,-4.4112,-4.4234,-4.4238,-4.4242,0,0,0,0,0,0,0,0,0,0,0,0,0,-4.3762,-4.3765,-4.397,-4.3972,-4.3973,-4.409,-4.4091,-4.4093,-4.4115,-4.4114,-4.4112,-4.4111,-4.4232,-4.4237,-4.4242,0,0,0,0,0,0,0,0,0,0,0,0,0,-4.3864,-4.3767,-4.397,-4.3998,-4.4002,-4.4089,-4.4091,-4.4093,-4.4115,-4.4114,-4.4112,-4.4111,-4.4231,-4.4237,-4.4243,-4.431,0,0,-4.4262,-4.4265,0,0,0,0,0,0,0,0,-4.3858,-4.3871,-4.3993,-4.3996,-4.4001,-4.4086,-4.4063,-4.4166,-4.4115,-4.4072,-4.4112,-4.411,-4.4186,-4.4195,-4.4221,-4.4316,-4.4321,-4.4262,-4.4266,-4.4269,-4.4271,0,0,0,0,0,0,0,-4.3851,-4.3866,-4.4018,-4.3994,-4.3999,-4.4005,-4.4018,-4.4082,-4.4136,-4.4076,-4.4078,-4.4092,-4.4188,-4.4215,-4.4224,-4.4323,-4.4262,-4.4268,-4.4272,-4.4274,-4.4481,-4.4482,0,0,0,0,0,0,-4.3839,-4.386,-4.4014,-4.4021,-4.3924,-4.401,-4.4025,-4.406,-4.4135,-4.4145,-4.4093,-4.4092,-4.4205,-4.4217,-4.4228,-4.4312,-4.4269,-4.4275,-4.4278,-4.4479,-4.4481,-4.4483,0,0,0,0,0,0,-4.3834,-4.3852,-4.4009,-4.3941,-4.3962,-4.4015,-4.4055,-4.4063,-4.4091,-4.4148,-4.4157,-4.4111,-4.4204,-4.422,-4.429,-4.4317,-4.4277,-4.4283,-4.4477,-4.448,-4.4482,-4.4481,0,0,0,0,0,0,-4.3828,-4.385,-4.3876,-4.3942,-4.3965,-4.4068,-4.4057,-4.4067,-4.4101,-4.4102,-4.4167,-4.4177,-4.4204,-4.4281,-4.4296,-4.4325,-4.4288,-4.4475,-4.4478,-4.4481,-4.4479,-4.4483,-4.4487,0,0,0,0,0,-4.3821,-4.3871,-4.3877,-4.3896,-4.3999,-4.407,-4.4083,-4.4114,-4.4103,-4.413,-4.4167,-4.4175,-4.4312,-4.4288,-4.4306,-4.4336,-4.4473,-4.4477,-4.4481,-4.4477,-4.4482,-4.4487,0,0,0,0,0,0,-4.3806,-4.388,-4.3888,-4.3961,-4.4009,-4.4073,-4.4107,-4.4119,-4.4171,-4.4169,-4.4205,-4.422,-4.4288,-4.432,-4.4291,-4.4406,-4.4392,-4.44,-4.4383,-4.4388,-4.4392,-4.4382,-4.4293,0,0,0,0,0,-4.3812,-4.3863,-4.3925,-4.3983,-4.4007,-4.4053,-4.4085,-4.4105,-4.4157,-4.4177,-4.4219,-4.4268,-4.4323,-4.4358,-4.4411,-4.4484,-4.4499,-4.4514,-4.4518,-4.4522,-4.4527,-4.4569,-4.4576,-4.4496,-4.4496,-4.4496,0,0,-4.3823,-4.387,-4.39,-4.3982,-4.4021,-4.4074,-4.407,-4.4126,-4.4165,-4.4185,-4.4254,-4.4287,-4.4345,-4.4417,-4.4451,-4.4445,-4.4553,-4.4527,-4.4529,-4.4533,-4.4573,-4.4581,-4.4587,-4.4499,-4.4498,-4.4498,0,0,-4.387,-4.3911,-4.3964,-4.4005,-4.4065,-4.4096,-4.4109,-4.4172,-4.4195,-4.4265,-4.4281,-4.4329,-4.4422,-4.4462,-4.4495,-4.4561,-4.4569,-4.4577,-4.4598,-4.4638,-4.4644,-4.465,-4.4672,-4.468,-4.4583,-4.4583,-4.4583,0,-4.3877,-4.3956,-4.399,-4.4045,-4.4081,-4.4103,-4.4157,-4.4195,-4.4269,-4.4293,-4.4287,-4.4404,-4.4445,-4.4527,-4.4543,-4.4569,-4.4585,-4.4568,-4.464,-4.4646,-4.4652,-4.4674,-4.4683,-4.4583,-4.4583,-4.4583,-4.4583,0,-4.3961,-4.4016,-4.4052,-4.4124,-4.4164,-4.4218,-4.4261,-4.4297,-4.4315,-4.4347,-4.4418,-4.4468,-4.4532,-4.4553,-4.4571,-4.4638,-4.4633,-4.4633,-4.4619,-4.466,-4.4681,-4.469,-4.4584,-4.4584,-4.4584,-4.4584,0,0,-4.4,-4.4091,-4.4104,-4.4137,-4.4206,-4.425,-4.4306,-4.4369,-4.4399,-4.4451,-4.4499,-4.4578,-4.4579,-4.4616,-4.4639,-4.4674,-4.4722,-4.467,-4.4672,-4.4677,-4.48,-4.4798,-4.4807,-4.473,-4.4732,-4.4733,-4.4795,0,-4.4054,-4.4155,-4.4188,-4.4271,-4.4323,-4.4346,-4.4395,-4.4443,-4.4475,-4.4523,-4.4559,-4.4614,-4.4611,-4.4634,-4.467,-4.4708,-4.4747,-4.4705,-4.4774,-4.4776,-4.4757,-4.4818,-4.4816,-4.4872,-4.4803,-4.4805,-4.4806,0,-4.4131,-4.4184,-4.4272,-4.4336,-4.4359,-4.4402,-4.4463,-4.451,-4.4565,-4.4586,-4.4629,-4.4649,-4.4709,-4.4694,-4.4777,-4.4748,-4.4778,-4.4802,-4.4805,-4.4811,-4.4791,-4.4824,-4.489,-4.4898,-4.4819,-4.4818,-4.4817,0,-4.4149,-4.4243,-4.4308,-4.4336,-4.4412,-4.4442,-4.4475,-4.453,-4.4566,-4.462,-4.4643,-4.4703,-4.4736,-4.4782,-4.4819,-4.4804,-4.4899,-4.4886,-4.4917,-4.4916,-4.4934,-4.4932,-4.5004,-4.4957,-4.4957,-4.4956,-4.4956,0,-4.4205,-4.4258,-4.4317,-4.4357,-4.4417,-4.4456,-4.4515,-4.4549,-4.4598,-4.4645,-4.467,-4.4714,-4.476,-4.481,-4.4839,-4.4903,-4.4918,-4.4937,-4.4943,-4.4933,-4.4931,-4.4952,-4.4949,-4.4959,-4.4958,-4.4958,-4.4957,0,-4.4234,-4.4276,-4.4349,-4.4416,-4.4434,-4.4475,-4.4533,-4.4573,-4.4607,-4.4666,-4.4683,-4.4736,-4.4796,-4.4838,-4.4915,-4.4935,-4.5005,-4.5011,-4.4985,-4.4988,-4.5017,-4.5013,-4.5103,-4.5117,-4.5062,-4.5062,-4.5063,0,-4.4266,-4.4308,-4.438,-4.4413,-4.4447,-4.45,-4.4538,-4.4578,-4.4616,-4.4683,-4.4715,-4.4778,-4.4829,-4.4925,-4.4971,-4.5031,-4.5038,-4.5066,-4.5047,-4.5036,-4.5038,-4.5034,-4.5038,-4.5068,-4.5069,-4.5069,-4.5069,0,-4.4319,-4.4338,-4.4391,-4.4451,-4.4495,-4.4545,-4.4594,-4.4621,-4.467,-4.4711,-4.4774,-4.4814,-4.4894,-4.4956,-4.502,-4.5055,-4.507,-4.5076,-4.5086,-4.5075,-4.5057,-4.5066,-4.4992,-4.5072,-4.5072,-4.5072,-4.5072,-4.5072,-4.435,-4.4388,-4.4445,-4.4503,-4.4545,-4.4591,-4.4632,-4.4672,-4.4724,-4.4792,-4.4813,-4.4878,-4.4934,-4.5023,-4.5059,-4.511,-4.5108,-4.5123,-4.5126,-4.5129,-4.5128,-4.5051,-4.5123,-4.5123,-4.5123,-4.5123,-4.5123,0,-4.4403,-4.4441,-4.4494,-4.4563,-4.4609,-4.4621,-4.4677,-4.4715,-4.4771,-4.4823,-4.4874,-4.4946,-4.5006,-4.5057,-4.512,-4.5152,-4.516,-4.5167,-4.5164,-4.5171,-4.5127,-4.5112,-4.5158,-4.5158,-4.5158,-4.5158,-4.5158,-4.5158,-4.4435,-4.45,-4.4526,-4.4613,-4.4651,-4.4714,-4.4745,-4.4788,-4.4829,-4.4909,-4.4959,-4.4992,-4.5044,-4.5111,-4.5167,-4.5181,-4.5202,-4.5206,-4.5221,-4.5179,-4.5174,-4.517,-4.5156,-4.5211,-4.5211,-4.5261,-4.5262,-4.5262]},{"header":{"parameterUnit":"m.s-1","parameterCategory":1,"la1":30.2991,"la2":30.254,"lo1":-89.0895,"lo2":-89.0444,"dy":0.0017,"dx":0.0017,"nx":28,"ny":28,"refTime":"2025-04-01T03:00:00:Z","depth":0,"parameterNumber":3,"parameterNumberName":"V-component_of_WINDS"},"data":[0,0,0,0,0,0,0,0,0,0,0,0,0,0,0,0,0,0,0,0,0,0,0,0,0,0,0,0,0,0,0,0,0,0,0,0,0,0,0,0,0,0,0,0,0,0,0,0,0,0,0,0,0,0,0,0,0,0,6.6594,6.6596,0,6.6713,6.6715,6.6716,6.6709,6.6707,6.6705,6.6704,6.6819,6.6824,6.6828,0,0,0,0,0,0,0,0,0,0,0,0,0,6.6358,6.6362,6.6594,6.6596,6.6597,6.6713,6.6715,6.6716,6.6709,6.6707,6.6705,6.6703,6.6818,6.6823,6.6829,0,0,0,0,0,0,0,0,0,0,0,0,0,6.6467,6.6364,6.6594,6.6608,6.661,6.6713,6.6715,6.6717,6.6709,6.6707,6.6704,6.6702,6.6816,6.6823,6.683,6.6924,0,0,6.6851,6.6854,0,0,0,0,0,0,0,0,6.6461,6.6475,6.6604,6.6607,6.661,6.6694,6.6674,6.6786,6.671,6.6672,6.6704,6.6701,6.6779,6.6789,6.6817,6.693,6.6935,6.6852,6.6856,6.6859,6.6861,0,0,0,0,0,0,0,6.6453,6.647,6.6641,6.6606,6.661,6.6607,6.662,6.6695,6.6738,6.6675,6.6675,6.6689,6.678,6.681,6.6819,6.6936,6.6851,6.6858,6.6862,6.6865,6.7136,6.7139,0,0,0,0,0,0,6.6443,6.6464,6.6637,6.6645,6.6528,6.6613,6.6627,6.6669,6.6737,6.6745,6.6691,6.6688,6.6799,6.6811,6.6823,6.6941,6.6859,6.6865,6.6869,6.7133,6.7136,6.714,0,0,0,0,0,0,6.6438,6.6459,6.6633,6.6555,6.6577,6.662,6.6667,6.6673,6.6703,6.675,6.6757,6.6714,6.6798,6.6813,6.69,6.6945,6.6869,6.6875,6.7129,6.7134,6.7138,6.7176,0,0,0,0,0,0,6.6431,6.6457,6.6494,6.6556,6.6581,6.6709,6.667,6.6677,6.6716,6.6713,6.6773,6.678,6.6797,6.689,6.6907,6.6953,6.688,6.7125,6.7131,6.7137,6.7171,6.7181,6.719,0,0,0,0,0,6.6423,6.6498,6.6496,6.6517,6.6628,6.6711,6.6726,6.6745,6.6719,6.6757,6.6787,6.6779,6.6937,6.6899,6.6918,6.6967,6.7123,6.713,6.7136,6.7166,6.7179,6.7189,0,0,0,0,0,0,6.6437,6.6506,6.6505,6.6602,6.6651,6.671,6.6758,6.6757,6.6813,6.6808,6.6827,6.6841,6.6929,6.6956,6.6912,6.7064,6.7026,6.7037,6.7043,6.7055,6.7064,6.7056,6.6886,0,0,0,0,0,6.6453,6.6516,6.6571,6.6652,6.6677,6.6713,6.675,6.6761,6.6812,6.6832,6.6869,6.6917,6.6978,6.7018,6.7076,6.7174,6.7188,6.7217,6.7227,6.7234,6.7244,6.73,6.7315,6.7162,6.7162,6.7162,0,0,6.6483,6.6528,6.6567,6.6656,6.6696,6.676,6.6731,6.6799,6.6848,6.6842,6.6928,6.6956,6.7011,6.7105,6.7148,6.7131,6.7289,6.7243,6.7249,6.7254,6.7309,6.7323,6.7336,6.7166,6.7165,6.7165,0,0,6.6573,6.6613,6.6686,6.6727,6.6789,6.6813,6.683,6.689,6.691,6.6997,6.6995,6.7051,6.7155,6.7196,6.723,6.7338,6.7333,6.7356,6.7406,6.7461,6.7473,6.7484,6.7525,6.7539,6.7366,6.7366,6.7366,0,6.6603,6.6702,6.6723,6.6794,6.6834,6.6835,6.6909,6.6947,6.7023,6.705,6.703,6.7164,6.72,6.7305,6.7332,6.7359,6.738,6.735,6.747,6.7481,6.7491,6.753,6.7545,6.7368,6.7368,6.7368,6.7367,0,6.6737,6.6805,6.6857,6.6934,6.698,6.7051,6.7083,6.7126,6.7134,6.716,6.7249,6.7294,6.7363,6.7388,6.7394,6.7495,6.7482,6.7466,6.7429,6.7508,6.7545,6.756,6.7372,6.7371,6.737,6.737,0,0,6.6837,6.6928,6.6947,6.6984,6.7053,6.7106,6.7178,6.7248,6.7286,6.7338,6.74,6.749,6.7476,6.7515,6.7526,6.7574,6.766,6.7552,6.7554,6.7572,6.7775,6.7788,6.7805,6.7657,6.7659,6.7662,6.7771,0,6.6936,6.7067,6.7089,6.7203,6.7268,6.7271,6.7334,6.7383,6.741,6.7468,6.7496,6.756,6.7536,6.756,6.7608,6.7639,6.7701,6.7631,6.7714,6.7717,6.7702,6.7824,6.7838,6.7939,6.7785,6.7788,6.779,0,6.7067,6.7128,6.725,6.7313,6.7341,6.7398,6.7466,6.7521,6.7576,6.7592,6.7638,6.7644,6.7719,6.7679,6.7783,6.7735,6.777,6.7791,6.7795,6.7804,6.7759,6.7838,6.7971,6.7987,6.7812,6.781,6.7809,0,6.7132,6.7243,6.7331,6.7362,6.7437,6.7478,6.7511,6.7564,6.7606,6.7664,6.7692,6.7757,6.7793,6.7843,6.7866,6.7835,6.7969,6.793,6.7985,6.7985,6.8014,6.8012,6.8156,6.8034,6.8034,6.8033,6.8033,0,6.724,6.7315,6.7362,6.7416,6.75,6.7525,6.7607,6.7639,6.7687,6.7747,6.7752,6.7808,6.7835,6.7895,6.7913,6.7998,6.8013,6.8029,6.8033,6.8029,6.8028,6.8053,6.8047,6.8037,6.8037,6.8036,6.8035,0,6.7326,6.736,6.7457,6.7522,6.754,6.76,6.7655,6.7707,6.7735,6.7811,6.783,6.7872,6.7943,6.7972,6.8058,6.807,6.8168,6.8166,6.8151,6.8152,6.8206,6.8201,6.8373,6.8397,6.8257,6.8259,6.826,0,6.7394,6.7452,6.7525,6.7567,6.7602,6.7669,6.7713,6.774,6.7785,6.7855,6.7899,6.7971,6.803,6.8143,6.818,6.8247,6.8247,6.8303,6.8257,6.8253,6.8251,6.8248,6.8254,6.8311,6.8313,6.8314,6.8315,0,6.7511,6.7526,6.759,6.7662,6.7715,6.7771,6.7826,6.7859,6.7894,6.7945,6.8019,6.8066,6.8156,6.8227,6.8296,6.8328,6.8328,6.8329,6.8346,6.8343,6.8333,6.8341,6.8176,6.8325,6.8324,6.8323,6.8323,6.8322,6.7592,6.7645,6.7705,6.7777,6.7822,6.7874,6.7928,6.7964,6.8027,6.8105,6.8116,6.8196,6.8252,6.8345,6.8381,6.8443,6.8428,6.8452,6.8458,6.8464,6.8469,6.8322,6.8455,6.8455,6.8455,6.8454,6.8454,0,6.7711,6.7751,6.7817,6.7896,6.7953,6.795,6.8011,6.8059,6.813,6.8183,6.8243,6.8329,6.8399,6.8443,6.8514,6.8555,6.8557,6.8573,6.8571,6.8579,6.8476,6.8456,6.8571,6.8571,6.8571,6.8571,6.8571,6.8571,6.778,6.7871,6.7894,6.8007,6.8046,6.8127,6.8162,6.821,6.8254,6.8351,6.8411,6.844,6.849,6.8565,6.8629,6.864,6.8666,6.8684,6.8694,6.8598,6.8586,6.8574,6.8555,6.8689,6.8689,6.8791,6.8792,6.8793]}]]